Location: Gisborne
(38.6530°S, 178.0040°E)
Time: 09:58:06
(UTC+13:00)

Cosmos 2322 Rocket - Pass Details

Date: 24 January 2019
Orbit: 834 x 849 km, 71.0° (Epoch: 21 February)

Event Time Altitude Azimuth Distance (km) Brightness Sun altitude
Rises 22:57:23 0° 304° (NW) 3,394 5.4 -23.2°
Reaches altitude 10° 23:00:15 10° 291° (WNW) 2,470 4.8 -23.5°
Maximum altitude 23:04:51 25° 236° (SW) 1,657 4.4 -24.0°
Drops below altitude 10° 23:09:32 10° 181° (S) 2,500 5.4 -24.5°
Sets 23:12:28 0° 168° (SSE) 3,444 6.0 -24.9°
